FENGYUN 1C DEB

Satellite information

Favourite Embed

Satellite Type and Status

DEBRISIN ORBIT

Key statistics

Satellite FENGYUN 1C DEB at a glance.

Uptime

9616

Days in orbit

Revolutions

≈ 14.3

Per day

Orbit

SSO

Sun Synchronous Orbit

Inclination

98.9

Latest

Satellite identification and parameters

Extended collection of information and parameters for FENGYUN 1C DEB.

Object identification

Identified? True

Debris? True

Object name: FENGYUN 1C DEB

International designator: 1999-025CA

Object number (NORAD): 29784

Object ID (CCSDS): 29784

Country: PEOPLES REPUBLIC OF CHINA (PRC)

Current information (Y/N): Y

RCS size: SMALL

Orbital parameters

Period: 100.685 minutes

Inclination: 98.9386 deg

SMA: 7169.213 km

Apoapsis: 833.554 km

Periapsis: 748.602 km

RAAN: 164.8494 deg

Eccentricy: 0.00592479

Argument of periapsis: 221.3611 deg

Mean anomaly: 162.4524 deg

Mean motion: 14.30196046 rev/day

Mean motion (dot): 0.00001573 rev/day2

B* drag term: 0.0006137763 1/REarth

Two-line elements (TLE)

Creation date: Sept. 6, 2025, 2:09 a.m.

Reference frame: TEME

Reference center: EARTH

Epoch: Sept. 5, 2025, 6:15 p.m. UTC

TLE line 0: 0 FENGYUN 1C DEB

TLE line 1: 1 29784U 99025CA 25248.76060248 .00001573 00000-0 61378-3 0 9993

TLE line 2: 2 29784 98.9386 164.8494 0059248 221.3611 162.4524 14.30196046969591

Live tracking on map

Real-time ground track for satellite FENGYUN 1C DEB.

In-orbit conjunctions

A list of the most updated potential collisions computed for object FENGYUN 1C DEB.

Target Orbit TCA Probability of collision Miss distance Type
FENGYUN 1C DEB SSO 2025-01-23 09:54:15 0.000147045 33.0 (m) DEBRIS
CZ-6A DEB LEO 2024-10-05 03:15:04 0.0001319218 187.0 (m) DEBRIS
SL-16 DEB LEO 2024-09-28 04:25:06 0.001013949 941.0 (m) DEBRIS
FENGYUN 1C DEB SSO 2024-09-25 14:38:55 0.0005081838 408.0 (m) DEBRIS
COSMOS 1867 COOLANT LEO 2024-07-04 05:15:45 0.0001008827 750.0 (m) DEBRIS

Associated space launch

Chinese polar orbiting meteorological satellite

FENGYUN 1C DEB was lifted into orbit during the mission ‘Long March 4B | Feng Yun 1C’, on board a Long March 4B space rocket.

The launch took place on May 10, 1999, 1:33 a.m. from Launch Complex 7.

For more information about the launch, click the button.

Launch to space Long March 4B | Feng Yun 1C
Long March 4B | Feng Yun 1C

Agency: N/A

Status: Launch Successful

Launch date: May 10, 1999, 1:33 a.m. UTC

Rocket: Long March 4B

Launch pad: Launch Complex 7

Location: Taiyuan Satellite Launch Center, People's Republic of China

...

Latest news about this satellite

There are no fresh news available about this satellite. Check back as we update our databases every day.


Newsletter sign-up

Weekly statistics, charts and insights to help you stay on top of the space industry.